This is the latest recevied weather packets stored in our database for station/object KA8OAD-10. If no packets are shown the sender has not sent any weather packets the latest 10 day(s).
| Time | Temp. | Humidity | Pressure | Rain* | Wind** | Luminosity | Snow |
|---|---|---|---|---|---|---|---|
| 1777839152 | 16.11° C | 39% | 1011.3 hPa | 0 mm | - | 141 W/m² | - |
| 1777838852 | 16.11° C | 40% | 1011.6 hPa | 0 mm | - | 162 W/m² | - |
| 1777837653 | 16.67° C | 38% | 1011.9 hPa | 0 mm | - | 162 W/m² | - |
| 1777836150 | 17.22° C | 37% | 1012.3 hPa | 0 mm | - | 193 W/m² | - |
| 1777835553 | 17.22° C | 36% | 1012.4 hPa | 0 mm | - | 167 W/m² | - |
| 1777835253 | 17.78° C | 37% | 1012.4 hPa | 0 mm | - | 874 W/m² | - |
| 1777834952 | 17.22° C | 36% | 1012.4 hPa | 0 mm | - | 861 W/m² | - |
| 1777834351 | 17.22° C | 37% | 1012.6 hPa | 0 mm | - | 889 W/m² | - |
| 1777833868 | 17.22° C | 38% | 1012.7 hPa | 0 mm | - | 993 W/m² | - |
| 1777833750 | 17.22° C | 38% | 1012.7 hPa | 0 mm | - | 993 W/m² | - |
| 1777832853 | 16.11° C | 43% | 1012.9 hPa | 0 mm | - | 904 W/m² | - |
| 1777832552 | 16.11° C | 39% | 1013 hPa | 0 mm | - | 171 W/m² | - |
| 1777831951 | 16.11° C | 40% | 1013 hPa | 0 mm | - | 232 W/m² | - |
| 1777831651 | 16.11° C | 39% | 1012.9 hPa | 0 mm | - | 970 W/m² | - |
| 1777831350 | 16.67° C | 39% | 1013 hPa | 0 mm | - | 130 W/m² | - |
| 1777830753 | 17.22° C | 40% | 1013.1 hPa | 0 mm | - | 155 W/m² | - |
| 1777829551 | 17.78° C | 42% | 1013.4 hPa | 0 mm | - | 935 W/m² | - |
| 1777829251 | 17.78° C | 41% | 1013.6 hPa | 0 mm | - | 935 W/m² | - |
| 1777828950 | 17.78° C | 38% | 1013.6 hPa | 0 mm | - | 998 W/m² | - |
| 1777828353 | 17.78° C | 40% | 1013.7 hPa | 0 mm | - | 904 W/m² | - |
| 1777828053 | 17.22° C | 40% | 1013.7 hPa | 0 mm | - | 921 W/m² | - |
| 1777827751 | 17.22° C | 40% | 1013.8 hPa | 0 mm | - | 889 W/m² | - |
| 1777827149 | 16.67° C | 40% | 1013.9 hPa | 0 mm | - | 909 W/m² | - |
| 1777826552 | 16.67° C | 42% | 1014 hPa | 0 mm | - | 907 W/m² | - |
| 1777825951 | 16.67° C | 40% | 1014 hPa | 0 mm | - | 872 W/m² | - |
* Rain latest hour (hover to see other rain measurements)
** Current wind speed in m/s (hover to see current wind gust speed)